Regional Weather Roundup
Issued by NWS

Home | Current Version | Previous Version | Graphics & Text | Print | Product List | Glossary On
Versions: 1 2 3 4 5 6 7 8 9 10 11 12 13 14 15 16 17 18 19 20 21 22 23 24 25 26 27 28 29 30 31 32 33 34 35 36 37 38 39 40 41 42 43 44 45 46 47 48 49 50
276
ASUS43 KTOP 272359
RWRKS

WEATHER ROUNDUP FOR KANSAS
NATIONAL WEATHER SERVICE GOODLAND KS
700 PM CDT TUE JUN 27 2017

NOTE:  "FAIR" INDICATES FEW OR NO CLOUDS BELOW 12,000 FEET WITH NO
SIGNIFICANT WEATHER AND/OR OBSTRUCTIONS TO VISIBILITY.

KSZ001>006-013>018-027>032-041>047-280100-
NORTHWEST KANSAS

CITY           SKY/WX    TMP DP  RH WIND       PRES   REMARKS
GOODLAND       CLOUDY    88  54  31 S14       29.70F
6HR MIN TEMP:  80; 6HR MAX TEMP:  95;

HAYS           SUNNY     93  64  38 S22G31    29.71F
HILL CITY      SUNNY     92  57  30 S16G22    29.69F
6HR MIN TEMP:  84; 6HR MAX TEMP:  97;

RUSSELL        SUNNY     94  61  33 S26G41    29.72F
6HR MIN TEMP:  88; 6HR MAX TEMP:  99; 6HR PCP: TRACE;

$$

KSZ061>065-074>080-084>089-280100-
SOUTHWEST KANSAS

CITY           SKY/WX    TMP DP  RH WIND       PRES   REMARKS
DODGE CITY     SUNNY     91  57  31 S24G35    29.77F
6HR MIN TEMP:  89; 6HR MAX TEMP:  94;

GARDEN CITY    SUNNY     92  55  28 S28G36    29.75F
6HR MIN TEMP:  92; 6HR MAX TEMP:  97;

GREAT BEND     SUNNY     91  64  40 S26G33    29.76F
LIBERAL        SUNNY     93  56  28 S24G35    29.80F
$$

KSZ066>073-081>083-090>101-280100-
SOUTHEAST KANSAS

CITY           SKY/WX    TMP DP  RH WIND       PRES   REMARKS
CHANUTE        SUNNY     85  62  46 S18G24    29.91F
6HR MIN TEMP:  81; 6HR MAX TEMP:  87;

COFFEYVILLE    SUNNY     85  63  47 S14       29.91F
6HR MIN TEMP:  79; 6HR MAX TEMP:  88;

HUTCHINSON     SUNNY     92  61  35 S23G33    29.80F
6HR MIN TEMP:  89; 6HR MAX TEMP:  96;

MEDICINE LODGE   N/A     92  59  33 S20G31    29.80F
NEWTON         SUNNY     86  69  56 S22G28    29.84F
PARSONS        SUNNY     85  65  51 SE9       29.93F
6HR MIN TEMP:  79; 6HR MAX TEMP:  86;

WICHITA INTL   MOSUNNY   88  68  51 S20G29    29.83F
6HR MIN TEMP:  85; 6HR MAX TEMP:  92;

WICHITA JABRA  SUNNY     85  68  56 S16G26    29.84F
6HR MIN TEMP:  79; 6HR MAX TEMP:  87;

WICHITA MCCONL SUNNY     87  67  50 S18G28    29.84F
WINFIELD       SUNNY     85  68  56 S17G25    29.87F
6HR MIN TEMP:  84; 6HR MAX TEMP:  88;

$$

KSZ007>012-019>026-033>040-048>060-102>105-280100-
NORTHEAST KANSAS

CITY           SKY/WX    TMP DP  RH WIND       PRES   REMARKS
CONCORDIA      SUNNY     88  72  58 S23G33    29.75F
6HR MIN TEMP:  79; 6HR MAX TEMP:  89;

EMPORIA        SUNNY     82  65  56 S23G30    29.87F
6HR MIN TEMP:  74; 6HR MAX TEMP:  84; 6HR PCP: TRACE;

LAWRENCE       PTSUNNY   81  68  64 SE18      29.89F
6HR MIN TEMP:  78; 6HR MAX TEMP:  84;

MANHATTAN      MOSUNNY   85  69  58 S20G28    29.81F
6HR MIN TEMP:  75; 6HR MAX TEMP:  87;

OLATHE IND     CLOUDY    79  66  64 S18G24    29.92F
6HR MIN TEMP:  78; 6HR MAX TEMP:  83;

OLATHE EXE     MOSUNNY   78  67  68 S17G25    29.92F
6HR MIN TEMP:  75; 6HR MAX TEMP:  81;

SALINA         SUNNY     94  65  38 S21G33    29.77F HX  96
6HR MIN TEMP:  84; 6HR MAX TEMP:  97;

TOPEKA BILLARD SUNNY     81  69  67 SE17G25   29.87F
6HR MIN TEMP:  77; 6HR MAX TEMP:  83;

TOPEKA FORBES  CLOUDY    82  69  64 SE15G25   29.87F
6HR MIN TEMP:  78; 6HR MAX TEMP:  83;

$$




USA.gov is the U.S. government's official web portal to all federal, state and local government web resources and services.